When you browse on this site, cookies collect data to enhance your experience and personalize the content and advertising you see.
Visit our Privacy Policy to learn more. By continuing to use the site, you agree to this use of cookies and data.

Hourly Weather Nkongsamba

Today, 22 September, Tuesday

Time Temperature Precipitation Wind Pressure Humidity
00:00 +19°C° 0 mm 0 mps 686 mmHg 98%
01:00 +19°C° 0 mm 0 mps 686 mmHg 97%
02:00 +18°C° 0 mm 0 mps 685 mmHg 97%
03:00 +18°C° 0 mm 0 mps 685 mmHg 98%
04:00 +18°C° 0 mm 0 mps 685 mmHg 98%
05:00 +19°C° 0 mm 0 mps 685 mmHg 97%
06:00 +19°C° 0 mm 0 mps 686 mmHg 96%
07:00 +19°C° 0 mm 0 mps 686 mmHg 96%
08:00 +21°C° 0.3 mm 0 mps 687 mmHg 89%
09:00 +23°C° 0.3 mm 0 mps 688 mmHg 83%
10:00 +25°C° 0.3 mm 0 mps 688 mmHg 76%
11:00 +25°C° 1.6 mm 0 mps 688 mmHg 78%
12:00 +27°C° 1.6 mm 1 mps 687 mmHg 80%
13:00 +27°C° 1.6 mm 1 mps 686 mmHg 81%
14:00 +26°C° 3.3 mm 1 mps 685 mmHg 86%
15:00 +24°C° 3.3 mm 1 mps 685 mmHg 91%
16:00 +23°C° 3.3 mm 1 mps 684 mmHg 96%
17:00 +23°C° 2.1 mm 1 mps 684 mmHg 97%
18:00 +22°C° 2.1 mm 1 mps 685 mmHg 98%
19:00 +22°C° 2.1 mm 1 mps 685 mmHg 98%
20:00 +19°C° 0.2 mm 0 mps 686 mmHg 98%
21:00 +19°C° 0.2 mm 0 mps 686 mmHg 98%
22:00 +19°C° 0.2 mm 0 mps 687 mmHg 98%
23:00 +19°C° 0.2 mm 0 mps 687 mmHg 98%

Tomorrow, 23 September, Wednesday

Time Temperature Precipitation Wind Pressure Humidity
00:00 +19°C° 0.2 mm 0 mps 686 mmHg 98%
01:00 +19°C° 0.2 mm 0 mps 686 mmHg 98%
02:00 +19°C° 0.7 mm 0 mps 686 mmHg 98%
03:00 +19°C° 0.7 mm 0 mps 686 mmHg 98%
04:00 +19°C° 0.7 mm 0 mps 685 mmHg 98%
05:00 +19°C° 0.9 mm 0 mps 686 mmHg 98%
06:00 +19°C° 0.9 mm 0 mps 686 mmHg 98%
07:00 +19°C° 0.9 mm 0 mps 687 mmHg 98%
08:00 +20°C° 0.6 mm 0 mps 687 mmHg 97%
09:00 +20°C° 0.6 mm 0 mps 687 mmHg 95%
10:00 +21°C° 0.6 mm 0 mps 688 mmHg 94%
11:00 +21°C° 0.3 mm 0 mps 687 mmHg 92%
12:00 +22°C° 0.3 mm 0 mps 686 mmHg 91%
13:00 +24°C° 0.3 mm 1 mps 686 mmHg 89%
14:00 +24°C° 0.8 mm 1 mps 685 mmHg 90%
15:00 +24°C° 0.8 mm 1 mps 685 mmHg 90%
16:00 +24°C° 0.8 mm 1 mps 685 mmHg 91%
17:00 +23°C° 1 mm 1 mps 685 mmHg 93%
18:00 +20°C° 1 mm 0 mps 685 mmHg 96%
19:00 +19°C° 1 mm 0 mps 686 mmHg 99%
20:00 +19°C° 0.6 mm 0 mps 686 mmHg 99%
21:00 +19°C° 0.6 mm 0 mps 687 mmHg 99%
22:00 +19°C° 0.6 mm 0 mps 687 mmHg 99%
23:00 +19°C° 0.4 mm 0 mps 687 mmHg 99%

Day after tomorrow, 24 September, Thursday

Time Temperature Precipitation Wind Pressure Humidity
00:00 +19°C° 0.4 mm 0 mps 687 mmHg 99%
01:00 +19°C° 0.4 mm 0 mps 686 mmHg 99%
02:00 +19°C° 0.2 mm 0 mps 686 mmHg 99%
03:00 +19°C° 0.2 mm 0 mps 686 mmHg 98%
04:00 +18°C° 0.2 mm 0 mps 685 mmHg 98%
05:00 +19°C° 0.1 mm 0 mps 686 mmHg 98%
06:00 +19°C° 0.1 mm 0 mps 686 mmHg 98%
07:00 +19°C° 0.1 mm 0 mps 687 mmHg 97%
08:00 +20°C° 0 mm 0 mps 687 mmHg 93%
09:00 +21°C° 0 mm 0 mps 688 mmHg 90%
10:00 +22°C° 0 mm 0 mps 688 mmHg 86%
11:00 +22°C° 1 mm 0 mps 687 mmHg 88%
12:00 +21°C° 1 mm 0 mps 687 mmHg 90%
13:00 +21°C° 1 mm 0 mps 686 mmHg 93%
14:00 +21°C° 1.2 mm 0 mps 686 mmHg 94%
15:00 +20°C° 1.2 mm 0 mps 685 mmHg 95%
16:00 +20°C° 1.2 mm 0 mps 685 mmHg 96%
17:00 +20°C° 0.9 mm 0 mps 685 mmHg 97%
18:00 +19°C° 0.9 mm 0 mps 686 mmHg 98%
19:00 +19°C° 0.9 mm 0 mps 686 mmHg 99%
20:00 +19°C° 1.3 mm 0 mps 686 mmHg 99%
21:00 +19°C° 1.3 mm 0 mps 686 mmHg 99%
22:00 +19°C° 1.3 mm 0 mps 687 mmHg 99%
23:00 +19°C° 0.4 mm 0 mps 687 mmHg 99%

25 September, Friday

Time Temperature Precipitation Wind Pressure Humidity
00:00 +19°C° 0.4 mm 0 mps 686 mmHg 99%
01:00 +18°C° 0.4 mm 0 mps 686 mmHg 99%
02:00 +18°C° 0.2 mm 0 mps 686 mmHg 98%
03:00 +18°C° 0.2 mm 0 mps 686 mmHg 98%
04:00 +18°C° 0.2 mm 0 mps 685 mmHg 98%
05:00 +18°C° 0 mm 0 mps 686 mmHg 97%
06:00 +19°C° 0 mm 0 mps 686 mmHg 97%
07:00 +19°C° 0 mm 0 mps 686 mmHg 96%
08:00 +20°C° 0.2 mm 0 mps 687 mmHg 93%
09:00 +21°C° 0.2 mm 0 mps 687 mmHg 90%
10:00 +22°C° 0.2 mm 0 mps 688 mmHg 87%
11:00 +23°C° 1.5 mm 0 mps 687 mmHg 85%
12:00 +25°C° 1.5 mm 1 mps 687 mmHg 84%
13:00 +26°C° 1.5 mm 1 mps 686 mmHg 83%
14:00 +25°C° 1.9 mm 1 mps 686 mmHg 87%
15:00 +24°C° 1.9 mm 1 mps 685 mmHg 92%
16:00 +22°C° 1.9 mm 1 mps 685 mmHg 96%
17:00 +20°C° 1.3 mm 0 mps 685 mmHg 96%
18:00 +20°C° 1.3 mm 0 mps 685 mmHg 97%
19:00 +19°C° 1.3 mm 0 mps 686 mmHg 97%
20:00 +19°C° 0.5 mm 0 mps 686 mmHg 97%
21:00 +19°C° 0.5 mm 0 mps 686 mmHg 98%
22:00 +19°C° 0.5 mm 0 mps 686 mmHg 98%
23:00 +19°C° 0.4 mm 0 mps 686 mmHg 98%

26 September, Saturday

Time Temperature Precipitation Wind Pressure Humidity
00:00 +18°C° 0.4 mm 0 mps 686 mmHg 98%
01:00 +18°C° 0.4 mm 0 mps 685 mmHg 98%
02:00 +18°C° 0.8 mm 0 mps 685 mmHg 98%
03:00 +18°C° 0.8 mm 0 mps 685 mmHg 98%
04:00 +18°C° 0.8 mm 0 mps 685 mmHg 98%
05:00 +18°C° 0.9 mm 0 mps 685 mmHg 98%
06:00 +18°C° 0.9 mm 0 mps 685 mmHg 98%
07:00 +18°C° 0.9 mm 0 mps 686 mmHg 98%
08:00 +19°C° 0.9 mm 0 mps 686 mmHg 98%
09:00 +19°C° 0.9 mm 0 mps 686 mmHg 98%
10:00 +19°C° 0.9 mm 0 mps 687 mmHg 98%
11:00 +19°C° 0.1 mm 0 mps 686 mmHg 97%
12:00 +19°C° 0.1 mm 0 mps 686 mmHg 97%
13:00 +19°C° 0.1 mm 0 mps 685 mmHg 96%
14:00 +19°C° 0.2 mm 0 mps 685 mmHg 96%
15:00 +19°C° 0.2 mm 0 mps 685 mmHg 96%
16:00 +19°C° 0.2 mm 0 mps 684 mmHg 96%
17:00 +19°C° 0 mm 0 mps 684 mmHg 97%
18:00 +19°C° 0 mm 0 mps 685 mmHg 97%
19:00 +18°C° 0 mm 0 mps 685 mmHg 98%
20:00 +18°C° 0 mm 0 mps 685 mmHg 98%
21:00 +18°C° 0 mm 0 mps 685 mmHg 98%
22:00 +18°C° 0 mm 0 mps 686 mmHg 97%
23:00 +18°C° 0 mm 0 mps 686 mmHg 97%

27 September, Sunday

Time Temperature Precipitation Wind Pressure Humidity
00:00 +18°C° 0 mm 0 mps 685 mmHg 97%
01:00 +18°C° 0 mm 0 mps 685 mmHg 98%
02:00 +17°C° 0 mm 0 mps 685 mmHg 98%
03:00 +17°C° 0 mm 0 mps 685 mmHg 98%
04:00 +17°C° 0 mm 0 mps 685 mmHg 98%
05:00 +17°C° 0 mm 0 mps 685 mmHg 97%
06:00 +18°C° 0 mm 0 mps 685 mmHg 97%
07:00 +18°C° 0 mm 0 mps 685 mmHg 96%
08:00 +22°C° 0 mm 1 mps 686 mmHg 88%
09:00 +24°C° 0 mm 1 mps 687 mmHg 80%
10:00 +26°C° 0 mm 1 mps 687 mmHg 72%
11:00 +26°C° 0.5 mm 1 mps 687 mmHg 72%
12:00 +26°C° 0.5 mm 1 mps 686 mmHg 73%
13:00 +26°C° 0.5 mm 1 mps 685 mmHg 73%
14:00 +26°C° 1.8 mm 1 mps 685 mmHg 78%
15:00 +25°C° 1.8 mm 1 mps 684 mmHg 83%
16:00 +25°C° 1.8 mm 1 mps 684 mmHg 88%
17:00 +23°C° 1.4 mm 1 mps 684 mmHg 91%
18:00 +20°C° 1.4 mm 0 mps 684 mmHg 94%
19:00 +19°C° 1.4 mm 0 mps 684 mmHg 98%
20:00 +19°C° 0.8 mm 0 mps 685 mmHg 98%
21:00 +19°C° 0.8 mm 0 mps 685 mmHg 98%
22:00 +19°C° 0.8 mm 0 mps 686 mmHg 98%
23:00 +19°C° 0.4 mm 0 mps 686 mmHg 98%
Show more